Weather History for Salina, KS

Change the Weather History Date:

Tuesday, February 1, 2011

  Actual Average Record
Temperature  
Mean Temperature 6 °F 32 °F  
Max Temperature 9 °F 43 °F 73 °F (1911)
Min Temperature 2 °F 21 °F -19 °F (1979)
Degree Days  
Heating Degree Days 59 33  
Month to date heating degree days 59 33  
Since 1 July heating degree days 3128 3049  
Cooling Degree Days 0 0  
Month to date cooling degree days 0 0  
Year to date cooling degree days 0 0  
Moisture  
Dew Point 1 °F    
Average Humidity 86    
Maximum Humidity 95    
Minimum Humidity 76    
Precipitation  
Precipitation 0.00 in 0.04 in 1.22 in (1973)
Year to date precipitation 0.46 0.67  
Sea Level Pressure  
Sea Level Pressure 30.33 in    
Wind  
Wind Speed 28 mph (NNW)    
Max Wind Speed 36 mph    
Max Gust Speed 44 mph    
Visibility 2 miles    
Events Fog , Snow    
T = Trace of Precipitation, MM = Missing Value Source: NWS Daily Summary

Daily Weather History Graph

Daily Weather History Graph

Search for Another Location

Airport:

Trip Planner

Search our weather history database for the weather conditions in past years. The results will help you decide how hot, cold, wet, or windy it might be!

Date:

Astronomy

Feb. 01, 2011 Rise Set
Actual Time 7:36 AM CST 5:51 PM CST
Civil Twilight 7:08 AM CST 6:20 PM CST
Nautical Twilight 6:36 AM CST 6:51 PM CST
Astronomical Twilight 6:05 AM CST 7:23 PM CST
Moon 6:35 AM CST (2/1) 4:48 PM CST (2/1)
Length of Visible Light 11h 11m
Length of Day
10h 15m
Waning Crescent, 2% of the Moon is Illuminated
Feb 1
Waning Crescent
Feb 2
New
Feb 11
First Quarter
Feb 18
Full
Feb 24
Last Quarter

Hourly Weather History & Observations

Time (CST) Temp. Windchill Dew Point Humidity Pressure Visibility Wind Dir Wind Speed Gust Speed Precip Events Conditions
12:42 AM 6.8 °F -16.9 °F 1.4 °F 79% 30.30 in 2.5 mi North 31.1 mph 43.7 mph 0.00 in Snow Light Snow
12:51 AM 6.8 °F -16.2 °F 1.4 °F 79% 30.29 in 3.0 mi North 28.8 mph 39.1 mph 0.00 in Snow Light Snow
12:53 AM 6.1 °F -17.6 °F 1.0 °F 80% 30.35 in 4.0 mi North 29.9 mph 36.8 mph 0.00 in Snow Light Snow
1:13 AM 6.8 °F -15.5 °F 1.4 °F 79% 30.25 in 2.5 mi NNW 26.5 mph 33.4 mph 0.00 in Snow Light Snow
1:26 AM 6.8 °F -15.9 °F 1.4 °F 79% 30.28 in 4.0 mi NNW 27.6 mph 34.5 mph 0.00 in Snow Light Snow
1:38 AM 6.8 °F -16.9 °F -0.4 °F 72% 30.29 in 5.0 mi North 31.1 mph 36.8 mph 0.00 in Snow Light Snow
1:53 AM 6.1 °F -14.3 °F -0.0 °F 76% 30.39 in 6.0 mi North 20.7 mph 29.9 mph 0.00 in Snow Light Snow
2:05 AM 6.8 °F -12.9 °F 1.4 °F 79% 30.32 in 2.5 mi North 19.6 mph 27.6 mph 0.00 in Snow Light Snow
2:53 AM 5.0 °F -15.7 °F -0.0 °F 80% 30.38 in 3.0 mi North 20.7 mph - 0.00 in Snow Light Snow
2:55 AM 5.0 °F -15.7 °F -0.4 °F 78% 30.30 in 2.5 mi North 20.7 mph - 0.00 in Snow Light Snow
2:58 AM 5.0 °F -17.1 °F 1.4 °F 85% 30.30 in 1.8 mi North 24.2 mph 28.8 mph 0.00 in Snow Light Snow
3:05 AM 5.0 °F -14.2 °F 1.4 °F 85% 30.31 in 1.0 mi North 17.3 mph 28.8 mph 0.00 in Snow Light Snow
3:27 AM 3.2 °F -20.3 °F -0.4 °F 85% 30.29 in 1.2 mi North 26.5 mph 32.2 mph 0.00 in Snow Light Snow
3:48 AM 3.2 °F -19.9 °F -0.4 °F 85% 30.28 in 1.5 mi NNW 25.3 mph - 0.00 in Snow Light Snow
3:49 AM 3.9 °F -19.0 °F -0.0 °F 84% 30.36 in 1.5 mi NNW 25.3 mph - 0.00 in Snow Light Snow
4:09 AM 3.2 °F -21.5 °F -0.4 °F 85% 30.29 in 1.2 mi North 29.9 mph 36.8 mph 0.00 in Snow Light Snow
4:42 AM 3.2 °F -20.3 °F -0.4 °F 85% 30.25 in 1.2 mi NNW 26.5 mph 38.0 mph 0.00 in Snow Light Snow
4:53 AM 3.0 °F -21.7 °F -0.9 °F 84% 30.34 in 1.2 mi NNW 29.9 mph 36.8 mph 0.00 in Snow Light Snow
5:15 AM 3.2 °F -22.2 °F -2.2 °F 78% 30.27 in 1.2 mi North 32.2 mph 40.3 mph 0.00 in Snow Light Snow
5:53 AM 3.0 °F -21.0 °F -2.0 °F 80% 30.37 in 1.5 mi NNW 27.6 mph 35.7 mph 0.00 in Snow Light Snow
6:03 AM 3.2 °F -21.1 °F -2.2 °F 78% 30.28 in 1.2 mi NNW 28.8 mph 35.7 mph 0.00 in Snow Light Snow
6:24 AM 1.4 °F -23.2 °F -2.2 °F 85% 30.29 in 0.8 mi NNW 27.6 mph 36.8 mph 0.00 in Snow Light Snow
6:33 AM 1.4 °F -23.2 °F -2.2 °F 85% 30.29 in 0.8 mi North 27.6 mph 40.3 mph 0.00 in Snow Light Snow
6:53 AM 1.9 °F -23.6 °F -2.0 °F 83% 30.37 in 0.8 mi North 31.1 mph 36.8 mph 0.00 in Snow Light Snow
7:15 AM 1.4 °F -23.2 °F -2.2 °F 85% 30.28 in 0.8 mi NNW 27.6 mph 38.0 mph 0.00 in Snow Light Snow
7:53 AM 1.9 °F -22.4 °F -0.9 °F 88% 30.36 in 0.5 mi NNW 27.6 mph 35.7 mph 0.00 in Fog , Snow Light Snow
8:01 AM 1.4 °F -23.5 °F -2.2 °F 85% 30.28 in 0.2 mi NNW 28.8 mph 36.8 mph 0.00 in Fog , Snow Snow
8:53 AM 1.9 °F -22.8 °F -0.9 °F 88% 30.36 in 0.2 mi NNW 28.8 mph 35.7 mph 0.00 in Fog , Snow Light Snow
9:11 AM 1.4 °F -23.5 °F -2.2 °F 85% 30.28 in 0.5 mi NNW 28.8 mph 38.0 mph 0.00 in Fog , Snow Light Snow
9:53 AM 3.2 °F -21.1 °F -0.4 °F 85% 30.29 in 0.5 mi NNW 28.8 mph 35.7 mph N/A Fog , Snow Light Snow
10:39 AM 3.2 °F -21.1 °F -0.4 °F 85% 30.29 in 0.5 mi NNW 28.8 mph 36.8 mph 0.00 in Fog , Snow Snow
10:53 AM 3.9 °F -20.1 °F -0.0 °F 84% 30.39 in 0.2 mi NNW 28.8 mph 39.1 mph 0.00 in Fog , Snow Snow
10:55 AM 3.2 °F -21.1 °F -0.4 °F 85% 30.30 in 0.5 mi NNW 28.8 mph 39.1 mph 0.00 in Fog , Snow Snow
11:53 AM 5.0 °F -19.0 °F 1.0 °F 84% 30.37 in 0.5 mi NNW 29.9 mph 36.8 mph 0.00 in Fog , Snow Light Snow
12:53 PM 6.1 °F -17.2 °F 1.9 °F 83% 30.36 in 0.5 mi NNW 28.8 mph 35.7 mph 0.00 in Fog , Snow Snow
1:53 PM 7.0 °F -15.6 °F 3.0 °F 84% 30.34 in 0.5 mi NNW 27.6 mph 34.5 mph 0.00 in Fog , Snow Snow
2:34 PM 6.8 °F -16.2 °F 3.2 °F 85% 30.25 in 0.5 mi NNW 28.8 mph 36.8 mph 0.00 in Fog , Snow Light Snow
2:53 PM 7.0 °F -16.3 °F 3.0 °F 84% 30.35 in 0.2 mi NNW 29.9 mph 39.1 mph 0.00 in Fog , Snow Light Snow
2:57 PM 6.8 °F -16.6 °F 3.2 °F 85% 30.26 in 0.5 mi NNW 29.9 mph 40.3 mph N/A Fog , Snow Light Snow
3:34 PM 6.8 °F -16.6 °F 3.2 °F 85% 30.28 in 0.5 mi NNW 29.9 mph 38.0 mph 0.00 in Fog , Snow Light Snow
3:38 PM 6.8 °F -17.9 °F 3.2 °F 85% 30.28 in 0.2 mi NNW 34.5 mph 42.6 mph 0.00 in Fog , Snow Light Snow
3:53 PM 7.0 °F -17.3 °F 3.0 °F 84% 30.37 in 0.2 mi NNW 33.4 mph 42.6 mph 0.00 in Fog , Snow Light Snow
4:05 PM 8.6 °F -13.1 °F 3.2 °F 79% 30.28 in 0.5 mi NNW 26.5 mph 35.7 mph 0.00 in Fog , Snow Light Snow
4:22 PM 8.6 °F -15.1 °F 3.2 °F 79% 30.28 in 0.2 mi NNW 33.4 mph 40.3 mph 0.00 in Fog , Snow Light Snow
4:43 PM 8.6 °F -13.8 °F 3.2 °F 79% 30.29 in 0.2 mi NNW 28.8 mph 38.0 mph 0.00 in Fog , Snow Light Snow
4:50 PM 8.6 °F -14.1 °F 3.2 °F 79% 30.29 in 0.5 mi NNW 29.9 mph 41.4 mph 0.00 in Fog , Snow Light Snow
4:53 PM 8.1 °F -15.2 °F 3.9 °F 83% 30.38 in 0.5 mi NNW 31.1 mph 41.4 mph 0.00 in Fog , Snow Light Snow
5:53 PM 9.0 °F -11.8 °F 5.0 °F 84% 30.39 in 1.0 mi NNW 24.2 mph 34.5 mph 0.00 in Snow Light Snow
6:42 PM 8.6 °F -14.1 °F 3.2 °F 79% 30.32 in 2.0 mi North 29.9 mph 36.8 mph 0.00 in Snow Light Snow
6:53 PM 9.0 °F -13.7 °F 3.9 °F 80% 30.41 in 2.5 mi NNW 29.9 mph 36.8 mph 0.00 in Snow Light Snow
7:53 PM 8.1 °F -13.8 °F 3.9 °F 83% 30.45 in 3.0 mi NNW 26.5 mph - 0.00 in Snow Light Snow
8:53 PM 7.0 °F -15.6 °F 1.9 °F 80% 30.48 in 6.0 mi NNW 27.6 mph 33.4 mph 0.00 in Snow Light Snow
9:53 PM 6.1 °F -17.2 °F -0.0 °F 76% 30.51 in 7.0 mi NNW 28.8 mph 34.5 mph 0.00 in Snow Light Snow
10:53 PM 6.8 °F -13.8 °F -2.2 °F 67% 30.44 in 9.0 mi NNW 21.9 mph - N/A   Mostly Cloudy
11:53 PM 3.9 °F -18.5 °F -6.0 °F 64% 30.56 in 9.0 mi NNW 24.2 mph 31.1 mph 0.00 in Snow Light Snow